Location: Banios
(43.0451°N, 0.2335°E)
Time: 13:36:36
(UTC+00:00)

Cosmos 1943 Rocket - Pass Details

Date: 25 January 2021
Orbit: 810 x 845 km, 71.0° (Epoch: 25 February)

Event Time Altitude Azimuth Distance (km) Brightness Sun altitude
Exits shadow 05:28:00 - 344° (NNW) 2,913 4.8 -20.6°
Reaches altitude 10° 05:29:16 10° 349° (N) 2,469 4.4 -20.3°
Maximum altitude 05:34:33 38° 57° (ENE) 1,267 3.5 -19.4°
Drops below altitude 10° 05:39:48 10° 125° (SE) 2,462 5.6 -18.4°
Sets 05:42:24 0° 133° (SE) 3,393 6.3 -18.0°
